Daviess Cnty AP, Washington,, IN

11:01 AM EST on December 15, 2019 (GMT -0500)
Daviess County

Weather History for KDCY - May, 2019

Change the Weather History Date:

Monday, May 6, 2019

  Actual Average (WUND) Record (WUND)
Temperature  
Mean Temperature 62 °F -  
Max Temperature 75 °F - - (-1)
Min Temperature 48 °F - - (-1)
Degree Days  
Heating Degree Days 4    
Growing Degree Days 12 (Base 50)    
Moisture  
Dew Point 52 °F    
Average Humidity 73    
Maximum Humidity 99    
Minimum Humidity 40    
Precipitation  
Precipitation 0.00 in - - ()
Sea Level Pressure  
Sea Level Pressure 30.03 in    
Wind  
Wind Speed 2 mph (SW)    
Max Wind Speed 10 mph    
Max Gust Speed 16 mph    
Visibility 10 miles    
Events      
Averages and records for this station are not official NWS values.
T = Trace of Precipitation, MM = Missing Value Source: NWS Daily Summary

Daily Weather History Graph

Daily Weather History Graph

Search for Another Location

Airport or City:

Astronomy

May. 06, 2019 Rise Set
Actual Time 6:45 AM EDT 8:45 PM EDT
Civil Twilight 6:16 AM EDT 9:14 PM EDT
Nautical Twilight 5:41 AM EDT 9:50 PM EDT
Astronomical Twilight 5:02 AM EDT 10:28 PM EDT
Moon 8:07 AM EDT (5/6) 10:41 PM EDT (5/6)
Length of Visible Light 14h 57m
Length of Day
13h 59m
Waxing Crescent, 3% of the Moon is Illuminated
May 6
Waxing Crescent
May 11
First Quarter
May 18
Full
May 26
Last Quarter
Jun 3
New

Hourly Weather History & Observations

Time (EDT) Temp. Dew Point Humidity Pressure Visibility Wind Dir Wind Speed Gust Speed Precip Events Conditions
12:15 AM 54.9 °F 52.0 °F 90% 29.95 in 10.0 mi Calm Calm - N/A   Clear
12:35 AM 53.8 °F 53.6 °F 99% 29.96 in 10.0 mi Calm Calm - N/A   Clear
12:55 AM 54.7 °F 52.3 °F 92% 29.96 in 10.0 mi Calm Calm - N/A   Clear
1:15 AM 53.8 °F 51.8 °F 93% 29.96 in 10.0 mi Calm Calm - N/A   Clear
1:35 AM 54.1 °F 53.6 °F 98% 29.96 in 10.0 mi Calm Calm - N/A   Clear
1:55 AM 53.8 °F 53.6 °F 99% 29.95 in 10.0 mi Calm Calm - N/A   Clear
2:15 AM 53.4 °F 53.2 °F 99% 29.95 in 10.0 mi Calm Calm - N/A   Clear
2:35 AM 52.2 °F 52.0 °F 99% 29.95 in 10.0 mi Calm Calm - N/A   Clear
2:55 AM 51.4 °F 51.1 °F 99% 29.95 in 10.0 mi Calm Calm - N/A   Clear
3:15 AM 50.9 °F 50.5 °F 99% 29.95 in 10.0 mi Calm Calm - N/A   Clear
3:35 AM 51.3 °F 51.1 °F 99% 29.95 in 10.0 mi Calm Calm - N/A   Clear
3:55 AM 50.9 °F 50.7 °F 99% 29.97 in 10.0 mi Calm Calm - N/A   Clear
4:15 AM 52.0 °F 51.8 °F 99% 29.97 in 10.0 mi Calm Calm - N/A   Clear
4:35 AM 51.3 °F 51.1 °F 99% 29.98 in 10.0 mi Calm Calm - N/A   Clear
4:55 AM 50.4 °F 50.2 °F 99% 29.99 in 10.0 mi Calm Calm - N/A   Clear
5:15 AM 50.4 °F 50.2 °F 99% 30.00 in 10.0 mi Calm Calm - N/A   Clear
5:35 AM 49.8 °F 49.6 °F 99% 30.00 in 10.0 mi Calm Calm - N/A   Clear
5:55 AM 49.3 °F 49.1 °F 99% 30.00 in 10.0 mi Calm Calm - N/A   Clear
6:15 AM 49.6 °F 49.3 °F 99% 30.00 in 10.0 mi Calm Calm - N/A   Clear
6:35 AM 49.3 °F 49.1 °F 99% 30.01 in 10.0 mi Calm Calm - N/A   Clear
6:55 AM 48.0 °F 47.8 °F 99% 30.01 in 10.0 mi Calm Calm - N/A   Clear
7:15 AM 48.4 °F 48.2 °F 99% 30.03 in 5.0 mi Calm Calm - N/A   Clear
7:35 AM 50.4 °F 50.2 °F 99% 30.04 in 10.0 mi Calm Calm - N/A   Clear
7:55 AM 52.2 °F 51.8 °F 99% 30.04 in 10.0 mi Calm Calm - N/A   Clear
8:15 AM 53.8 °F 53.6 °F 99% 30.04 in 10.0 mi Calm Calm - N/A   Clear
8:35 AM 56.1 °F 55.9 °F 99% 30.05 in 10.0 mi Calm Calm - N/A   Clear
8:55 AM 57.2 °F 56.7 °F 98% 30.05 in 10.0 mi Calm Calm - N/A   Clear
9:15 AM 58.8 °F 56.8 °F 93% 30.06 in 10.0 mi Calm Calm - N/A   Clear
9:35 AM 60.8 °F 56.1 °F 85% 30.05 in 10.0 mi Calm Calm - N/A   Clear
9:55 AM 62.2 °F 55.6 °F 79% 30.05 in 10.0 mi SE 3.5 mph - N/A   Clear
10:15 AM 64.4 °F 55.4 °F 73% 30.06 in 10.0 mi SE 3.5 mph - N/A   Clear
10:35 AM 66.4 °F 55.8 °F 69% 30.06 in 10.0 mi SSE 4.6 mph - N/A   Clear
10:55 AM 67.3 °F 52.9 °F 60% 30.07 in 10.0 mi South 5.8 mph - N/A   Clear
11:15 AM 68.7 °F 53.6 °F 58% 30.07 in 10.0 mi SSE 4.6 mph - N/A   Clear
11:35 AM 69.8 °F 51.8 °F 53% 30.08 in 10.0 mi South 8.1 mph - N/A   Clear
11:55 AM 70.9 °F 52.3 °F 52% 30.08 in 10.0 mi SW 8.1 mph - N/A   Clear
12:15 PM 71.2 °F 53.2 °F 53% 30.08 in 10.0 mi SW 5.8 mph - N/A   Clear
12:35 PM 71.8 °F 51.1 °F 48% 30.07 in 10.0 mi WSW 9.2 mph - N/A   Clear
12:55 PM 72.3 °F 51.1 °F 47% 30.08 in 10.0 mi SSW 6.9 mph - N/A   Clear
1:15 PM 72.7 °F 50.0 °F 45% 30.08 in 10.0 mi SSW 6.9 mph - N/A   Clear
1:35 PM 73.0 °F 50.5 °F 45% 30.07 in 10.0 mi WSW 10.4 mph 16.1 mph N/A   Clear
1:55 PM 73.4 °F 49.8 °F 43% 30.06 in 10.0 mi WSW 3.5 mph - N/A   Clear
2:15 PM 73.6 °F 48.0 °F 40% 30.05 in 10.0 mi South 5.8 mph - N/A   Clear
2:35 PM 74.1 °F 49.5 °F 42% 30.05 in 10.0 mi South 6.9 mph - N/A   Clear
2:55 PM 74.7 °F 50.7 °F 43% 30.05 in 10.0 mi SSW 8.1 mph - N/A   Clear
3:15 PM 75.0 °F 49.8 °F 41% 30.04 in 10.0 mi SSW 5.8 mph - N/A   Clear
3:35 PM 75.4 °F 49.3 °F 40% 30.04 in 10.0 mi SW 6.9 mph - N/A   Clear
3:55 PM 74.5 °F 49.3 °F 41% 30.04 in 10.0 mi WSW 9.2 mph - N/A   Clear
4:15 PM 74.3 °F 48.9 °F 41% 30.04 in 10.0 mi SW 6.9 mph - N/A   Clear
4:35 PM 74.7 °F 50.4 °F 42% 30.03 in 10.0 mi SW 5.8 mph - N/A   Clear
4:55 PM 74.5 °F 50.4 °F 43% 30.03 in 10.0 mi South 8.1 mph - N/A   Clear
5:15 PM 74.3 °F 50.0 °F 42% 30.03 in 10.0 mi SSW 5.8 mph - N/A   Clear
5:35 PM 73.4 °F 50.4 °F 44% 30.03 in 10.0 mi SSW 4.6 mph - N/A   Clear
5:55 PM 73.8 °F 48.4 °F 41% 30.03 in 10.0 mi WSW 5.8 mph - N/A   Clear
6:15 PM 73.4 °F 49.1 °F 42% 30.04 in 10.0 mi SSW 5.8 mph - N/A   Clear
6:35 PM 73.4 °F 50.0 °F 44% 30.04 in 10.0 mi WSW 4.6 mph - N/A   Scattered Clouds
6:55 PM 74.8 °F 50.0 °F 42% 30.04 in 10.0 mi WSW 3.5 mph - N/A   Scattered Clouds
7:15 PM 74.5 °F 51.1 °F 44% 30.04 in 10.0 mi WSW 5.8 mph - N/A   Clear
7:35 PM 73.4 °F 51.4 °F 46% 30.04 in 10.0 mi West 4.6 mph - N/A   Clear
7:55 PM 72.5 °F 53.6 °F 51% 30.04 in 10.0 mi Calm Calm - N/A   Clear
8:15 PM 70.3 °F 55.8 °F 60% 30.04 in 10.0 mi Calm Calm - N/A   Clear
8:35 PM 66.2 °F 57.2 °F 73% 30.05 in 10.0 mi SW 3.5 mph - N/A   Clear
8:55 PM 63.0 °F 57.9 °F 84% 30.05 in 10.0 mi WSW 4.6 mph - N/A   Clear
9:15 PM 62.6 °F 57.2 °F 82% 30.06 in 10.0 mi WSW 3.5 mph - N/A   Clear
9:35 PM 60.8 °F 54.5 °F 80% 30.07 in 10.0 mi West 3.5 mph - N/A   Clear
9:55 PM 61.7 °F 56.5 °F 83% 30.07 in 10.0 mi Calm Calm - N/A   Clear
10:15 PM 61.0 °F 54.9 °F 80% 30.08 in 10.0 mi Calm Calm - N/A   Clear
10:35 PM 59.4 °F 54.9 °F 85% 30.07 in 10.0 mi Calm Calm - N/A   Clear
10:55 PM 60.1 °F 56.3 °F 87% 30.07 in 10.0 mi SSE 3.5 mph - N/A   Clear
11:15 PM 59.4 °F 54.1 °F 83% 30.07 in 10.0 mi South 3.5 mph - N/A   Scattered Clouds
11:35 PM 59.2 °F 54.0 °F 83% 30.07 in 10.0 mi Calm Calm - N/A   Scattered Clouds
11:55 PM 59.4 °F 54.1 °F 83% 30.07 in 10.0 mi Calm Calm - N/A   Scattered Clouds